(169187) = 2001 RZ9

Discovered at Socorro on 2001-09-10 by LINEAR.

Orbit

Orbit type: Main Belt

Note: WebGL enabled browser required.

epoch2023-09-13.0
epoch JD2460200.5
perihelion date2019-05-15.91303
perihelion JD2458619.41304
argument of perihelion (°)179.53024
ascending node (°)249.88233
inclination (°)26.52770
eccentricity0.1145567
perihelion distance (AU)2.7879150
Tisserand w.r.t. Jupiter3.0
ΔV w.r.t. Earth (km/sec)13.3
semimajor axis (AU)3.1486093
mean anomaly (°)278.92115
mean daily motion (°/day)0.17641100
aphelion distance (AU)3.509
period (years)5.59
P-vector [x]0.35082587
P-vector [y]0.85770440
P-vector [z]0.37585154
Q-vector [x]-0.83728191
Q-vector [y]0.46705122
Q-vector [z]-0.28429239
absolute magnitude14.98
phase slope0.15
uncertainty0
referenceMPO 778081
observations used348
oppositions17
arc length (days)8091
first opposition used2001
last opposition used2023
residual rms (arc-secs)0.76
perturbers coarse indicatorM-v
perturbers precise indicator003Ek
first observation date used2001-09-10.0
last observation date used2023-11-05.0
computer nameMPCLINUX
JD of orbit computation2456671.014332
perihelion JD uncertainty (days)2.4927E-04
argument of perihelion uncertainty (°)5.0185E-05
ascending node uncertainty (°)2.1047E-05
inclination uncertainty (°)9.3991E-06
eccentricity uncertainty 9.4485E-08
perihelion distance uncertainty (AU)3.0206E-07
Minimum Orbit Intersection Distances (in AU)
for orbit epoch: 2460200.5, reference: E2023-V65
Mercury2.47975
Venus2.06693
Earth1.80111
Mars1.26013
Jupiter1.81183
Saturn6.27191
Uranus15.4244
Neptune27.0313

Observations

360 total observations over interval: 2001 09 10.25153 – 2023 11 05.119873
These data are available for download (format description).

Date (UT) J2000 RA J2000 Dec Magn Location Ref
2001 09 10.25153 23 37 36.42 +36 27 21.2 19.4   704 – Lincoln Laboratory ETS, New Mexico MPS 34970
2001 09 10.27969 23 37 35.09 +36 27 16.9 20.0   704 – Lincoln Laboratory ETS, New Mexico MPS 34970
2001 09 10.29362 23 37 34.44 +36 27 15.5 19.8   704 – Lincoln Laboratory ETS, New Mexico MPS 34970
2001 09 10.30754 23 37 33.71 +36 27 14.6 20.3   704 – Lincoln Laboratory ETS, New Mexico MPS 34970
2001 09 11.26585 23 36 49.84 +36 24 43.8 19.4   704 – Lincoln Laboratory ETS, New Mexico MPS 34970
2001 09 11.28156 23 36 49.01 +36 24 41.5 19.9   704 – Lincoln Laboratory ETS, New Mexico MPS 34970
2001 09 11.31183 23 36 47.60 +36 24 36.4 20.2   704 – Lincoln Laboratory ETS, New Mexico MPS 34970
2001 09 12.27454 23 36 03.11 +36 21 47.0 19.6   704 – Lincoln Laboratory ETS, New Mexico MPS 34970
2001 09 12.28902 23 36 02.38 +36 21 44.6 19.6   704 – Lincoln Laboratory ETS, New Mexico MPS 34970
2001 09 12.30351 23 36 01.66 +36 21 42.0 19.5   704 – Lincoln Laboratory ETS, New Mexico MPS 34970
2001 09 12.31812 23 36 00.93 +36 21 38.9 19.6   704 – Lincoln Laboratory ETS, New Mexico MPS 34970
2001 09 24.25285 23 26 41.28 +35 22 02.6 19.8   704 – Lincoln Laboratory ETS, New Mexico MPS 36211
2001 09 24.28250 23 26 39.65 +35 21 48.4 20.4   704 – Lincoln Laboratory ETS, New Mexico MPS 36211
2001 09 24.29733 23 26 38.91 +35 21 41.5 20.3   704 – Lincoln Laboratory ETS, New Mexico MPS 36211
2001 09 24.31229 23 26 38.21 +35 21 35.3 20.3   704 – Lincoln Laboratory ETS, New Mexico MPS 36211
2001 09 28.24867 23 23 41.19 +34 52 25.9 18.9   704 – Lincoln Laboratory ETS, New Mexico MPS 36211
2001 09 28.26371 23 23 40.58 +34 52 19.5 19.0   704 – Lincoln Laboratory ETS, New Mexico MPS 36211
2001 09 28.27874 23 23 39.89 +34 52 12.4 19.7   704 – Lincoln Laboratory ETS, New Mexico MPS 36211
2001 09 28.29389 23 23 39.17 +34 52 05.6 19.6   704 – Lincoln Laboratory ETS, New Mexico MPS 36211
2001 09 28.30891 23 23 38.49 +34 51 59.0 19.5   704 – Lincoln Laboratory ETS, New Mexico MPS 36211
2001 10 20.17421 23 11 26.47 +31 06 38.7 18.1   704 – Lincoln Laboratory ETS, New Mexico MPS 39307
2001 10 20.17585 23 11 26.37 +31 06 36.3 19.7   704 – Lincoln Laboratory ETS, New Mexico MPS 39307
2001 10 20.19083 23 11 26.11 +31 06 26.9 18.5   704 – Lincoln Laboratory ETS, New Mexico MPS 39307
2001 10 20.20922 23 11 25.71 +31 06 13.0 19.8   704 – Lincoln Laboratory ETS, New Mexico MPS 39307
2001 10 20.21046 23 11 25.71 +31 06 11.8 18.7   704 – Lincoln Laboratory ETS, New Mexico MPS 39307
2001 10 20.22572 23 11 25.38 +31 06 02.0 19.9   704 – Lincoln Laboratory ETS, New Mexico MPS 39307
2001 10 20.22712 23 11 25.30 +31 06 00.3 18.9   704 – Lincoln Laboratory ETS, New Mexico MPS 39307
2001 10 20.24632 23 11 24.90 +31 05 46.5 18.6   704 – Lincoln Laboratory ETS, New Mexico MPS 39307
2002 12 14.40498 06 50 20.82 +04 41 48.6 19.4   704 – Lincoln Laboratory ETS, New Mexico MPS 69815
2002 12 14.42031 06 50 20.03 +04 41 39.7 19.6   704 – Lincoln Laboratory ETS, New Mexico MPS 69815
2002 12 14.43567 06 50 19.23 +04 41 32.3 19.4   704 – Lincoln Laboratory ETS, New Mexico MPS 69815
2003 01 02.30537 06 32 52.81 +02 16 23.4 19.4   704 – Lincoln Laboratory ETS, New Mexico MPS 69815
2003 01 02.33550 06 32 51.10 +02 16 12.5 19.6   704 – Lincoln Laboratory ETS, New Mexico MPS 69815
2003 01 02.35072 06 32 50.16 +02 16 07.6 19.6   704 – Lincoln Laboratory ETS, New Mexico MPS 69815
2003 01 02.36575 06 32 49.30 +02 16 01.3 19.3   704 – Lincoln Laboratory ETS, New Mexico MPS 69815
2004 03 20.61306 11 48 59.72 -35 11 03.7 19.1 R E12 – Siding Spring Survey MPS 136912
2004 03 20.62443 11 48 59.03 -35 10 58.4 20.4 R E12 – Siding Spring Survey MPS 136912
2004 03 20.63586 11 48 58.51 -35 10 54.7 20.3 R E12 – Siding Spring Survey MPS 136912
2004 03 20.64723 11 48 57.98 -35 10 50.9 19.4 R E12 – Siding Spring Survey MPS 136912
2004 04 13.54670 11 32 29.62 -31 52 17.5 19.6 R E12 – Siding Spring Survey MPS 136912
2004 04 13.55804 11 32 29.29 -31 52 10.4 20.2 R E12 – Siding Spring Survey MPS 136912
2004 04 13.56936 11 32 28.96 -31 52 03.5 19.4 R E12 – Siding Spring Survey MPS 136912
2004 04 13.58071 11 32 28.52 -31 51 55.5 19.8 R E12 – Siding Spring Survey MPS 136912
2005 06 16.32613 16 29 07.62 -19 26 26.8 19.9 V G96 – Mt. Lemmon Survey MPS 136481
2005 06 16.33144 16 29 07.36 -19 26 24.7 19.6 V G96 – Mt. Lemmon Survey MPS 136481
2005 06 16.33671 16 29 07.11 -19 26 22.4 20.1 V G96 – Mt. Lemmon Survey MPS 136481
2005 06 16.34204 16 29 06.86 -19 26 20.5 20.2 V G96 – Mt. Lemmon Survey MPS 136481
2007 10 12.38969 02 48 01.42 +37 30 08.2 19.7 r 699 – Lowell Observatory-LONEOS MPS 220238
2007 10 12.40909 02 48 00.67 +37 30 01.7 19.5 r 699 – Lowell Observatory-LONEOS MPS 220238
2007 10 12.42845 02 47 59.83 +37 29 54.9 19.5 r 699 – Lowell Observatory-LONEOS MPS 220238
2007 10 12.44790 02 47 59.04 +37 29 48.7 19.4 r 699 – Lowell Observatory-LONEOS MPS 220238
2007 10 16.25461 02 45 25.41 +37 07 30.3 20.6 V 703 – Catalina Sky Survey MPS 220238
2007 10 16.26355 02 45 25.02 +37 07 26.7 19.3 V 703 – Catalina Sky Survey MPS 220238
2007 10 16.27255 02 45 24.62 +37 07 24.4 19.8 V 703 – Catalina Sky Survey MPS 220238
2007 10 16.28157 02 45 24.15 +37 07 20.5 20.2 V 703 – Catalina Sky Survey MPS 220238
2007 11 09.30950 02 25 41.98 +33 17 33.1 19.8 V 703 – Catalina Sky Survey MPS 224628
2007 11 09.31454 02 25 41.70 +33 17 30.3 19.1 V 703 – Catalina Sky Survey MPS 224628
2007 11 09.31956 02 25 41.44 +33 17 26.1 19.5 V 703 – Catalina Sky Survey MPS 224628
2007 11 09.32463 02 25 41.16 +33 17 22.4 19.2 V 703 – Catalina Sky Survey MPS 224628
2007 11 18.17199 02 18 52.02 +31 22 36.0 19.6 V 703 – Catalina Sky Survey MPS 228191
2007 11 18.18422 02 18 51.40 +31 22 26.5 19.3 V 703 – Catalina Sky Survey MPS 228191
2007 11 18.19645 02 18 50.97 +31 22 16.4 19.9 V 703 – Catalina Sky Survey MPS 228191
2007 11 18.20862 02 18 50.25 +31 22 06.1 19.2 V 703 – Catalina Sky Survey MPS 228191
2007 12 03.25608 02 10 33.31 +27 56 09.6 19.3   704 – Lincoln Laboratory ETS, New Mexico MPS 230861
2007 12 03.26890 02 10 33.00 +27 55 58.7 19.9   704 – Lincoln Laboratory ETS, New Mexico MPS 230861
2007 12 03.28173 02 10 32.68 +27 55 48.8 19.8   704 – Lincoln Laboratory ETS, New Mexico MPS 230861
2007 12 03.29458 02 10 32.35 +27 55 38.1 19.8   704 – Lincoln Laboratory ETS, New Mexico MPS 230861
2007 12 03.30743 02 10 32.05 +27 55 27.7 19.6   704 – Lincoln Laboratory ETS, New Mexico MPS 230861
2008 01 01.15553 02 10 32.30 +22 23 11.3 20.0 V G96 – Mt. Lemmon Survey MPS 276042
2008 01 01.15607 02 10 32.41 +22 23 11.4 19.9 V G96 – Mt. Lemmon Survey MPS 276042
2008 01 01.16404 02 10 32.48 +22 23 06.5 19.9 V G96 – Mt. Lemmon Survey MPS 276042
2008 01 01.16458 02 10 32.55 +22 23 06.9 19.9 V G96 – Mt. Lemmon Survey MPS 276042
2008 01 01.17251 02 10 32.66 +22 23 02.0 20.2 V G96 – Mt. Lemmon Survey MPS 276042
2008 01 01.17306 02 10 32.70 +22 23 02.0 20.1 V G96 – Mt. Lemmon Survey MPS 276042
2008 01 01.18110 02 10 32.84 +22 22 57.6 20.2 V G96 – Mt. Lemmon Survey MPS 276042
2008 01 01.18165 02 10 32.88 +22 22 57.2 20.3 V G96 – Mt. Lemmon Survey MPS 276042
2008 01 10.14995 02 14 42.57 +21 10 37.7 20.3   704 – Lincoln Laboratory ETS, New Mexico MPS 234073
2008 01 10.16276 02 14 42.95 +21 10 31.9 20.1   704 – Lincoln Laboratory ETS, New Mexico MPS 234073
2008 01 10.17556 02 14 43.35 +21 10 27.1 20.6   704 – Lincoln Laboratory ETS, New Mexico MPS 234073
2008 01 10.18844 02 14 43.63 +21 10 21.9 20.1   704 – Lincoln Laboratory ETS, New Mexico MPS 234073
2008 02 29.14476 03 03 19.18 +18 20 29.9 20.4 V G96 – Mt. Lemmon Survey MPS 240525
2008 02 29.15156 03 03 19.72 +18 20 29.5 20.6 V G96 – Mt. Lemmon Survey MPS 240525
2008 02 29.15836 03 03 20.26 +18 20 29.2 20.7 V G96 – Mt. Lemmon Survey MPS 240525
2008 02 29.16522 03 03 20.77 +18 20 28.7 20.7 V G96 – Mt. Lemmon Survey MPS 240525
2010 02 01.56669 14 15 27.46 -34 56 50.1   C51 – WISE MPS 343465
2010 02 01.698988 14 15 32.14 -34 57 31.5   C51 – WISE MPS 343465
2010 02 01.765205 14 15 34.50 -34 57 52.5   C51 – WISE MPS 343465
2010 02 01.831420 14 15 36.82 -34 58 13.2   C51 – WISE MPS 343465
2010 02 01.897509 14 15 39.16 -34 58 33.8   C51 – WISE MPS 343465
2010 02 01.963725 14 15 41.40 -34 58 54.2   C51 – WISE MPS 343465
